Powrót do katalogu

SL-8 DEB

AktywnyLEO
NORAD 21167·DEBRIS·🇷🇺 Russia

Wystrzelony Feb 12, 1991 z Plesetsk Cosmodrome

Loading…

Następne Przeloty (najbliższe 24 godziny)

TLE

ŚwieżeSource: Space-Track

Epoka: Sep 14, 2026, 07:47 UTC

1 21167U 91009AE  26257.32487752 -.00000025  00000-0 -73733-4 0  9992
2 21167  73.9182  18.6693 0137526 338.6260  48.1064 12.29325577594345

Śledź SL-8 DEB w czasie rzeczywistym z AllMySat

Download on the App Store